User: anonymous   Login
Location: Unspecified
(0.0000°N, 0.0000°E)
Time: 23:29:04
(UTC+00:00)
Language:

Altair - Orbit

View from above orbital plane
View from above orbital plane
View from above satellite
View from above satellite

Ground track
Ground track

The orbit data is extracted from the following two-line orbital elements,

1    50U 60009B   18346.20724808 -.00000100  00000-0 -13040-3 0  9997
2    50  47.2333  38.3519 0113350 117.2333 244.0058 12.20106587603139
Epoch (UTC): 12 December 2018 04:58:26
Eccentricity: 0.0113350
inclination: 47.2333°
perigee height: 1502 km
apogee height: 1682 km
right ascension of ascending node: 38.3519°
argument of perigee: 117.2333°
revolutions per day: 12.20106587
mean anomaly at epoch: 244.0058°
orbit number at epoch: 60313

The dashed part of the orbit path shows where the satellite is in the earth's shadow,  

DLR